Regional Weather Roundup
Issued by NWS

Home | Current Version | Previous Version | Graphics & Text | Print | Product List | Glossary On
Versions: 1 2 3 4 5 6 7 8 9 10 11 12 13 14 15 16 17 18 19 20 21 22 23 24 25 26 27 28 29 30 31 32 33 34 35 36 37 38 39 40 41 42 43 44 45 46 47 48 49 50
000
ASUS43 KMKX 291800
RWRWI

WISCONSIN REGIONAL WEATHER ROUNDUP
NATIONAL WEATHER SERVICE MILWAUKEE/SULLIVAN WI
100 PM CDT WED JUL 29 2015

NOTE: "FAIR" INDICATES FEW OR NO CLOUDS BELOW 12,000 FEET WITH NO
SIGNIFICANT WEATHER AND/OR OBSTRUCTIONS TO VISIBILITY.

WIZ001-002-006>008-014>016-023>028-291900-
NORTHWEST WISCONSIN

CITY           SKY/WX    TMP DP  RH WIND       PRES   REMARKS
SUPERIOR ARPT  CLOUDY    69  56  63 W17G28    29.77S
ASHLAND        CLOUDY    70  56  61 SW18G29   29.79R
6HR MIN TEMP:  67; 6HR MAX TEMP:  72;

HAYWARD        CLOUDY    72  53  51 W13G24    29.86R
6HR MIN TEMP:  67; 6HR MAX TEMP:  72;

SIREN          CLOUDY    74  53  48 W21G26    29.86S
CUMBERLAND     CLOUDY    72  52  49 W22G28    29.89S
RICE LAKE      PTSUNNY   74  54  50 W20G30    29.91R
CHETEK         FAIR      76  54  46 W18G37    29.90R
LADYSMITH      FAIR      76  52  43 W24G36    29.89R
EAU CLAIRE     NOT AVBL
MENOMONIE      FAIR      79  49  35 W25G37    29.91S
NEW RICHMOND   FAIR      76  52  42 W18G31    29.92S
OSCEOLA        FAIR      77  54  45 W30G36    29.94S
$$

WIZ003>005-009-010-017-018-291900-
NORTH CENTRAL WISCONSIN

CITY           SKY/WX    TMP DP  RH WIND       PRES   REMARKS
MANITOWISH WTR PTSUNNY   73  53  49 W18G33    29.82S
ARBOR VITAE      N/A     76  55  48 W20G30    29.83R
WOODRUFF         N/A     76  55  48 W20G30    29.83R
RHINELANDER    MOSUNNY   79  51  37 W23G33    29.84S
6HR MIN TEMP:  66; 6HR MAX TEMP:  79;

EAGLE RIVER    MOSUNNY   76  48  37 W24G31    29.82R
LAND O LAKES   MOSUNNY   75  50  41 W20G32    29.82R
PHILLIPS       FAIR      75  54  49 W16G29    29.85R
6HR MIN TEMP:  63; 6HR MAX TEMP:  75;

TOMAHAWK       SUNNY     76  51  42 W21G26    29.85F
MEDFORD        FAIR      75  52  44 W23G30    29.88S
MERRILL        NOT AVBL
$$

WIZ029-030-035-036-043>047-291900-
CENTRAL WISCONSIN

CITY           SKY/WX    TMP DP  RH WIND       PRES   REMARKS
WAUSAU         FAIR      81  47  30 W25G39    29.87S HX  80
6HR MIN TEMP:  68; 6HR MAX TEMP:  82;

MOSINEE        NOT AVBL
MARSHFIELD     FAIR      80  47  31 W25G35    29.91S
6HR MIN TEMP:  66; 6HR MAX TEMP:  80;

STEVENS POINT  FAIR      77  50  37 W20G30    29.91S
WAUPACA        SUNNY     83  47  28 W20       29.91S HX  81
WAUTOMA        NOT AVBL
WISC RAPIDS    FAIR      82  47  29 W17G32    29.93F HX  80
6HR MIN TEMP:  69; 6HR MAX TEMP:  82;

CAMP DOUGLAS   NOT AVBL
$$

WIZ011>013-019>022-031-037>040-048>050-291900-
NORTHEAST WISCONSIN

CITY           SKY/WX    TMP DP  RH WIND       PRES   REMARKS
ANTIGO         SUNNY     77  51  41 W26G35    29.86F
SHAWANO        SUNNY     81  49  32 W20G29    29.87S HX  80
OCONTO         SUNNY     83  52  34 SW21G31   29.83F HX  81
STURGEON BAY   SUNNY     81  52  36 W21G29    29.86S HX  80
6HR MIN TEMP:  73; 6HR MAX TEMP:  81;

GREEN BAY      SUNNY     83  52  34 W18G32    29.87S HX  82
6HR MIN TEMP:  74; 6HR MAX TEMP:  83;

MANITOWOC      NOT AVBL
APPLETON       MOSUNNY   81  46  30 W20G29    29.91S HX  80
CLINTONVILLE   SUNNY     81  45  28 W18G32    29.88S
OSHKOSH        SUNNY     82  51  34 W15G25    29.91S HX  81
6HR MIN TEMP:  74; 6HR MAX TEMP:  83;

$$

WIZ032>034-041-042-053>061-291900-
SOUTHWEST WISCONSIN

CITY           SKY/WX    TMP DP  RH WIND       PRES   REMARKS
LA CROSSE      FAIR      83  51  33 W22G32    29.96S HX  81
6HR MIN TEMP:  71; 6HR MAX TEMP:  83;

SPARTA         FAIR      80  46  29 W18G26    29.97S
VIROQUA        FAIR      78  52  41 W16G25    30.01S
BOSCOBEL       FAIR      85  54  34 W13G22    30.00F HX  83
6HR MIN TEMP:  71; 6HR MAX TEMP:  85;

PRAIRIE DU CHI FAIR      82  47  29 W13G23    30.01F HX  80
PLATTEVILLE    FAIR      79  55  42 W12G18    30.03F HX  80
$$

WIZ056-057-062-063-064-067-068-291900-
SOUTH CENTRAL WISCONSIN

CITY           SKY/WX    TMP DP  RH WIND       PRES   REMARKS
REEDSBURG      FAIR      82  50  33 W20G26    29.98S HX  81
BARABOO/DELLS  FAIR      82  44  26 W18       29.97F HX  80
LONE ROCK      NOT AVBL
MINERAL POINT  FAIR      81  46  30 W12G22    30.03S HX  80
MADISON        FAIR      82  51  34 W12G21    29.98S HX  81
6HR MIN TEMP:  70; 6HR MAX TEMP:  82;

MIDDLETON      FAIR      83  46  27 W17G23    30.00S HX  81
WATERTOWN      SUNNY     80  56  43 W13G22    29.97F HX  80
MONROE         FAIR      81  50  34 W16       30.02F HX  80
JANESVILLE     MOSUNNY   84  48  28 W13       30.00S HX  82
$$

WIZ051-052-058>065-066-070>072-291900-
SOUTHEAST WISCONSIN

CITY           SKY/WX    TMP DP  RH WIND       PRES   REMARKS
MILWAUKEE      MOSUNNY   84  48  28 W15G25    29.96S HX  82
6HR MIN TEMP:  77; 6HR MAX TEMP:  84; 6HR PCP: TRACE;

WAUKESHA       SUNNY     81  48  32 W14G25    29.98F HX  80
MILWAUKEE/TIMM SUNNY     82  45  26 W18       29.97S HX  80
RACINE         MOSUNNY   83  53  35 W13G22    29.99S HX  82
6HR MIN TEMP:  77; 6HR MAX TEMP:  84; 6HR PCP: TRACE;

BURLINGTON     MOSUNNY   80  51  37 W10G21    29.99S
KENOSHA        MOSUNNY   82  59  45 W18       29.99R HX  82
6HR MIN TEMP:  76; 6HR MAX TEMP:  82;

FOND DU LAC    SUNNY     83  50  31 W16G26    29.93S HX  81
6HR MIN TEMP:  75; 6HR MAX TEMP:  83;

SHEBOYGAN      MOSUNNY   83  53  35 W16G29    29.91F HX  82
6HR MIN TEMP:  75; 6HR MAX TEMP:  83; 6HR PCP: TRACE;

WEST BEND      SUNNY     81  46  30 W13G26    29.95S HX  80
JUNEAU         SUNNY     78  54  43 W16G22    29.97S
$$

LSZ147-162-291900-
LAKE SUPERIOR

STATION/POSITION TIME  TEMP    WIND        PRES    WAVE
                       AIR SEA DIR/SP/G            HT/PER
                 (UTC) (F)     (DEG/KT/KT) (MB)    (FT/S)
W MID LAKE BUOY  1650   65 57  240/ 23/ 29 1004.8R   7/ 6
DEVILS ISLAND    1700   68     240/ 30/ 35 1006.0R
PORT WING        1735   70     240/ 13/ 27 1008.1R
SAXON HARBOR     1700   72                 1008.1R
$$

LMZ867-665-643>646-291900-
LAKE MICHIGAN

STATION/POSITION TIME  TEMP    WIND        PRES    WAVE
                       AIR SEA DIR/SP/G            HT/PER
                 (UTC) (F)     (DEG/KT/KT) (MB)    (FT/S)
CHAMBERS ISLAND  1700   78     210/ 10/ 17 1009.1F
N MID LAKE BUOY  1650   73 70  220/ 12/ 14 1009.2F   2/ 4
NORTHPORT PIER   1700   80     230/  7/ 19 1009.1F
SISTER BAY       1714   79     250/ 20/ 23   N/A
ALGOMA LAKESHORE 1742          290/ 20/ 28   N/A
KEWAUNEE LAKESHO 1700   80     250/ 13/ 22 1010.9F
SHEBOYGAN LAKESH 1700   79     270/ 13/ 16 1012.9F
PORT WASHINGTON  1740   83     270/ 12/ 19 1014.2S
ATWATER BUOY     1700   75     270/ 14/ 17 1015.6S
MILWAUKEE LAKESH 1700   79     270/ 11/ 16   N/A
KENOSHA   LAKESH 1700   82     270/ 13/ 20 1014.6S
$$

TC  - TEMPERATURE IN CELSIUS
VSB - VISIBILITY IN STATUTE MILES
WCI - WIND CHILL INDEX
HX  - HEAT INDEX




USA.gov is the U.S. government's official web portal to all federal, state and local government web resources and services.